Temp
78 83 87 84 71 69 65 66 70 69 71 75 75 74 73 74 73 69 75 78 76 81 82 78 74 76 76 76 76 76 76 77 77 77 77 76 76 75 74 75 75 75 75 74 73 72 72 71 71
84 81 84 79 67 63 67 69 68 72 74 74 73 73 74 75 79 79 77 77 77 81 81 81 72 75 76 76 75 75 76 77 77 77 77 76 76 75 74 73 74 74 74 73 72 71 71 70 70
80 81 79 73 68 64 66 70 73 73 73 73 73 75 76 77 79 79 77 77 77 80 81 81 72 74 75 75 75 75 76 76 76 76 77 76 74 73 73 73 73 73 73 72 72 71 70 70 69
82 82 77 68 64 68 68 74 73 74 72 72 74 73 78 81 79 78 76 78 77 79 80 74 72 74 75 75 75 75 76 76 76 76 76 74 73 72 72 72 72 72 72 71 71 70 69 69 68
82 79 69 64 64 68 71 73 72 71 73 73 72 74 75 78 75 74 75 76 76 78 79 78 71 73 74 74 75 75 76 76 76 75 74 72 72 71 71 71 71 71 71 71 70 69 68 67 67
76 75 66 64 65 69 71 73 71 72 73 73 71 73 78 76 74 75 75 76 78 77 76 77 69 70 72 73 74 75 76 76 74 74 73 72 72 71 71 70 70 70 70 70 69 68 67 66 65
72 70 64 63 64 65 70 71 71 73 73 74 75 72 80 78 75 73 74 77 76 78 75 76 77 73 67 70 71 72 73 73 73 72 71 71 70 70 70 69 69 70 70 69 68 67 66 65 64
75 72 61 63 65 65 73 71 73 73 75 73 77 74 77 78 70 70 71 74 74 75 75 75 76 77 77 76 67 68 70 70 70 69 68 67 67 67 67 66 68 69 68 67 66 66 65 64 62
70 66 63 64 61 69 73 70 72 74 74 73 75 77 79 69 67 69 68 69 71 71 72 74 74 75 76 76 73 66 66 66 67 67 64 64 72 71 68 67 67 67 67 66 65 64 62 61 59
69 64 66 71 72 70 72 70 73 71 74 74 75 78 74 68 68 71 71 72 70 70 70 73 73 74 74 74 74 74 71 72 70 71 71 72 72 71 69 65 64 65 64 64 63 61 58 59 66
66 65 70 69 71 70 69 68 72 71 69 76 76 80 80 71 70 70 74 76 75 75 73 71 72 73 72 72 73 74 73 73 71 72 71 69 68 66 67 68 67 66 61 66 63 60 64 62 65
61 67 68 68 67 66 66 70 68 70 74 81 81 80 78 75 73 72 73 75 75 74 73 72 71 70 71 72 71 72 72 72 71 70 68 66 66 66 66 66 66 64 64 62 61 61 60 60 60
61 67 67 67 65 66 67 65 67 69 76 79 78 74 73 76 76 77 75 75 75 72 72 71 70 69 69 69 71 71 70 69 70 68 66 67 66 64 65 65 64 64 62 61 61 60 60 59 59
64 63 64 66 66 66 62 68 63 73 77 74 73 74 77 75 76 77 74 72 71 71 71 72 70 69 69 68 69 69 69 69 68 67 66 64 66 64 63 62 61 61 62 62 62 61 60 59 58
63 60 66 68 65 63 63 59 60 73 74 71 75 77 78 76 76 74 77 76 75 73 72 71 69 69 68 67 68 68 68 68 66 66 65 63 63 63 62 61 60 61 60 59 59 58 59 59 58
60 59 57 66 60 62 63 58 71 76 70 71 75 78 78 78 78 80 79 77 78 75 72 71 68 67 67 67 67 67 67 66 65 65 65 62 61 62 61 60 59 60 58 59 58 58 58 59 58
58 55 55 57 63 61 60 59 67 71 70 69 72 74 75 76 77 79 80 77 77 76 74 71 68 66 66 66 67 66 65 64 65 65 64 62 61 61 61 60 60 58 57 57 58 57 58 56 57
57 54 56 53 63 60 57 57 63 68 67 67 70 72 73 72 74 77 76 77 75 75 73 72 69 67 66 65 65 65 64 63 64 64 63 61 60 59 59 59 59 56 56 56 56 56 57 58 57
56 54 54 58 63 57 56 58 61 65 66 65 67 70 71 72 76 75 73 74 74 71 70 69 68 66 66 62 61 61 60 61 61 62 61 61 59 58 57 58 58 55 54 55 55 55 52 53 55
54 51 52 59 60 52 57 55 60 64 64 66 66 68 70 72 75 73 72 72 72 71 71 68 67 66 65 64 63 63 62 63 61 61 60 60 59 58 57 57 55 54 54 54 54 53 52 54 54
52 49 52 53 55 58 53 56 57 65 63 65 65 67 69 69 69 69 68 71 71 71 70 68 67 65 64 63 63 61 63 59 58 58 57 57 58 58 56 57 56 54 54 53 52 52 52 51 51
48 58 52 49 47 47 53 45 56 62 63 65 66 67 69 72 71 70 69 68 67 65 63 64 64 63 62 62 61 59 57 56 58 58 57 57 56 57 56 56 56 54 54 53 52 53 54 55 50
52 52 49 48 47 44 50 43 57 59 59 62 65 67 70 72 67 66 64 63 64 60 59 60 61 60 59 58 60 59 57 60 61 59 57 56 55 55 55 55 54 54 53 54 53 51 52 54 54
52 51 48 46 46 39 51 48 52 56 57 60 66 68 69 64 64 63 60 59 57 56 55 56 56 57 56 57 58 58 57 57 58 57 55 55 54 53 53 53 53 53 53 53 52 52 51 52 54
50 48 41 39 39 39 50 44 50 61 65 61 62 62 59 56 54 52 51 51 52 51 51 52 53 53 55 55 55 56 57 56 55 56 55 53 51 50 51 51 51 52 52 53 52 51 51 50 51
48 50 40 27 32 40 49 40 52 62 62 61 55 52 51 51 51 50 49 49 50 49 50 51 50 49 51 51 52 53 53 54 54 55 55 54 53 52 52 51 51 51 52 52 51 51 50 50 48
46 43 51 40 38 35 44 51 59 62 55 49 48 50 49 48 49 49 49 48 48 48 48 49 48 48 48 48 49 49 51 51 51 52 51 51 50 49 49 49 48 49 49 49 50 48 48 47 47
48 51 41 40 29 28 40 43 46 54 52 45 45 45 45 46 46 46 47 48 48 48 49 49 49 47 47 47 47 47 47 48 49 51 49 48 49 49 47 48 47 48 48 48 48 47 47 45 45
46 42 42 41 38 30 30 39 56 49 45 44 43 42 42 43 43 45 46 47 48 49 48 48 47 46 46 46 46 45 45 45 46 46 48 48 48 49 47 47 46 46 46 46 45 46 45 42 43
49 46 46 33 32 37 35 37 57 53 49 42 40 40 40 41 43 45 45 46 46 46 46 45 46 45 45 45 44 44 44 44 44 44 46 47 47 47 46 46 45 45 45 45 44 44 44 41 40
MSLP
1016.54 1016.28 1015.84 1015.17 1014.64 1013.73 1012.79 1012.92 1013.25 1012.97 1013.11 1013.52 1013.69 1013.49 1013.32 1013.21 1012.74 1013.40 1014.35 1014.44 1014.92 1014.84 1015.27 1016.04 1016.37 1016.63 1016.87 1017.16 1017.39 1017.59 1017.79 1017.89 1018.01 1018.18 1018.30 1018.59 1018.92 1019.15 1019.32 1019.32 1019.38 1019.38 1019.51 1019.66 1019.89 1019.94 1019.83 1019.89 1019.89
1016.33 1016.20 1015.62 1014.81 1013.97 1012.96 1012.50 1013.02 1012.94 1013.06 1013.45 1013.85 1013.91 1013.65 1013.33 1012.45 1013.09 1013.40 1014.07 1014.63 1015.00 1014.87 1015.33 1015.67 1016.42 1016.63 1016.87 1017.17 1017.39 1017.55 1017.72 1017.86 1018.00 1018.25 1018.44 1018.62 1018.95 1019.38 1019.57 1019.58 1019.53 1019.56 1019.73 1019.91 1019.95 1020.05 1020.04 1020.15 1020.11
1016.45 1016.16 1015.01 1014.47 1013.93 1012.89 1012.66 1012.93 1013.02 1013.49 1013.90 1013.83 1013.56 1013.69 1013.20 1012.56 1013.10 1013.53 1014.28 1014.75 1015.11 1015.08 1015.45 1015.69 1016.36 1016.58 1016.85 1017.13 1017.38 1017.54 1017.64 1017.77 1018.01 1018.19 1018.41 1018.68 1019.14 1019.61 1019.73 1019.76 1019.76 1019.79 1019.96 1020.01 1020.09 1020.16 1020.22 1020.27 1020.29
1016.16 1015.71 1015.68 1014.54 1013.56 1013.26 1013.24 1012.89 1013.49 1013.44 1013.84 1014.10 1013.78 1013.19 1013.31 1013.07 1013.41 1014.00 1014.53 1014.75 1015.09 1015.17 1015.52 1015.95 1016.35 1016.45 1016.64 1016.93 1017.21 1017.46 1017.57 1017.72 1017.99 1018.17 1018.39 1018.95 1019.37 1019.66 1019.83 1019.86 1019.97 1020.01 1020.09 1020.20 1020.29 1020.32 1020.41 1020.43 1020.41
1016.21 1015.42 1014.64 1014.26 1013.83 1013.69 1013.62 1013.61 1013.71 1013.43 1013.47 1013.52 1013.81 1012.92 1012.96 1013.28 1014.08 1014.49 1014.68 1014.93 1014.91 1015.17 1015.47 1015.86 1016.32 1016.44 1016.63 1016.77 1016.95 1017.18 1017.35 1017.62 1017.93 1018.30 1018.67 1019.13 1019.40 1019.68 1019.84 1019.93 1020.03 1020.05 1020.23 1020.22 1020.38 1020.49 1020.66 1020.69 1020.65
1015.57 1015.50 1014.41 1013.77 1013.69 1013.73 1013.74 1013.80 1013.86 1013.52 1013.47 1013.50 1013.63 1013.21 1012.76 1013.46 1014.00 1014.32 1014.69 1014.84 1014.90 1015.25 1015.65 1015.86 1016.31 1016.40 1016.54 1016.76 1016.99 1017.00 1017.39 1017.72 1018.09 1018.36 1018.69 1019.00 1019.34 1019.68 1019.80 1019.89 1020.08 1020.19 1020.24 1020.33 1020.52 1020.69 1020.84 1020.99 1021.04
1015.42 1015.12 1014.49 1014.28 1013.84 1013.66 1013.54 1014.02 1013.65 1013.22 1013.21 1013.09 1013.35 1012.77 1012.52 1013.21 1013.96 1014.50 1014.70 1014.82 1015.04 1015.08 1015.71 1015.92 1016.07 1016.37 1016.65 1016.73 1016.82 1017.21 1017.68 1017.97 1018.18 1018.35 1018.67 1019.02 1019.39 1019.68 1019.79 1019.94 1020.13 1020.14 1020.20 1020.47 1020.66 1020.88 1021.02 1021.14 1021.26
1015.92 1015.32 1014.76 1014.32 1013.74 1013.35 1013.41 1013.76 1013.67 1013.38 1012.82 1013.52 1013.43 1012.42 1012.15 1013.25 1014.35 1014.72 1014.87 1014.83 1014.93 1015.11 1015.30 1015.47 1015.76 1015.99 1016.17 1016.46 1016.89 1017.13 1017.52 1017.86 1018.18 1018.51 1018.88 1019.18 1019.48 1019.75 1019.96 1020.14 1020.15 1020.15 1020.40 1020.64 1020.80 1020.97 1021.08 1021.17 1021.37
1016.43 1015.31 1014.18 1013.81 1013.87 1013.11 1013.60 1013.60 1013.75 1013.58 1013.15 1013.12 1012.88 1012.40 1012.64 1013.76 1014.54 1014.56 1014.69 1014.77 1014.81 1014.95 1015.00 1015.05 1015.26 1015.47 1015.70 1016.03 1016.41 1016.96 1017.34 1017.67 1018.00 1018.35 1018.81 1019.27 1019.36 1019.65 1019.93 1019.97 1020.17 1020.34 1020.54 1020.79 1021.04 1021.20 1021.35 1021.56 1021.67
1015.90 1015.07 1013.89 1013.62 1013.47 1013.30 1013.56 1013.65 1013.42 1013.30 1012.51 1012.11 1012.03 1012.26 1012.79 1013.60 1013.94 1013.87 1013.82 1013.66 1013.92 1014.04 1014.41 1014.77 1015.01 1015.14 1015.48 1015.80 1016.21 1016.59 1017.09 1017.38 1017.65 1017.93 1018.36 1018.67 1018.96 1019.31 1019.64 1020.03 1020.25 1020.46 1020.76 1021.03 1021.30 1021.54 1021.79 1021.72 1021.44
1015.78 1014.58 1013.93 1013.83 1013.76 1013.90 1013.75 1013.59 1013.51 1012.67 1011.55 1011.17 1011.01 1010.98 1011.69 1012.66 1012.95 1012.93 1012.69 1012.52 1012.46 1013.06 1013.76 1014.21 1014.60 1014.93 1015.32 1015.60 1015.85 1016.09 1016.65 1016.90 1017.45 1017.76 1018.17 1018.59 1019.01 1019.52 1019.70 1019.76 1020.17 1020.47 1020.84 1020.85 1021.33 1021.66 1021.46 1021.64 1021.51
1015.68 1014.64 1014.40 1014.04 1014.19 1014.21 1013.84 1013.41 1012.95 1012.37 1010.94 1010.47 1010.60 1010.70 1011.03 1011.51 1011.63 1011.79 1011.65 1011.67 1012.08 1012.41 1012.85 1013.61 1014.16 1014.54 1014.77 1015.06 1015.40 1015.69 1015.97 1016.21 1016.65 1017.20 1017.95 1018.58 1018.98 1019.33 1019.46 1019.56 1019.82 1020.24 1020.55 1020.80 1021.11 1021.32 1021.48 1021.66 1021.81
1015.60 1014.52 1014.53 1014.41 1014.55 1014.27 1014.08 1013.19 1012.76 1011.34 1010.79 1010.40 1010.35 1010.63 1010.47 1010.64 1010.64 1010.83 1011.13 1011.41 1011.63 1011.87 1012.39 1012.95 1013.43 1013.71 1014.12 1014.57 1014.71 1014.96 1015.38 1015.96 1016.32 1016.91 1017.52 1017.78 1018.06 1018.47 1018.97 1019.44 1019.96 1020.24 1020.62 1020.69 1020.72 1020.99 1021.20 1021.53 1021.69
1015.42 1015.08 1014.56 1014.28 1014.17 1014.02 1013.89 1012.31 1012.88 1010.21 1010.06 1009.97 1009.98 1009.89 1009.84 1009.86 1009.94 1010.13 1010.45 1010.66 1011.04 1011.32 1011.47 1012.00 1012.62 1013.15 1013.62 1013.96 1014.11 1014.35 1014.72 1014.96 1015.53 1016.02 1016.42 1017.01 1017.42 1018.11 1018.71 1019.03 1019.36 1019.78 1020.25 1020.67 1020.87 1021.02 1021.15 1021.35 1021.68
1015.66 1014.98 1013.95 1013.23 1013.45 1013.68 1013.57 1012.53 1011.48 1010.15 1010.17 1009.69 1009.31 1008.97 1008.95 1009.10 1009.17 1009.20 1009.27 1009.37 1009.84 1010.17 1010.57 1010.87 1011.61 1012.49 1013.00 1013.41 1013.75 1014.04 1014.22 1014.54 1014.81 1015.09 1015.60 1016.27 1016.77 1017.15 1017.65 1018.42 1019.30 1019.76 1020.14 1020.35 1020.58 1021.15 1021.48 1021.58 1021.78
1015.50 1015.18 1013.64 1012.59 1013.38 1013.41 1013.46 1011.32 1010.17 1010.04 1010.22 1009.41 1008.91 1008.33 1008.05 1007.72 1008.05 1008.42 1008.39 1008.60 1008.71 1009.13 1009.59 1010.24 1010.82 1011.11 1011.46 1011.91 1012.67 1013.24 1013.72 1014.35 1014.78 1015.27 1015.76 1016.34 1016.69 1016.90 1017.53 1018.01 1018.21 1019.04 1020.12 1020.50 1020.55 1020.61 1020.79 1021.16 1021.49
1015.01 1013.76 1013.40 1013.04 1012.76 1013.15 1013.12 1011.20 1010.50 1010.43 1010.04 1008.63 1008.27 1007.85 1007.51 1007.21 1007.15 1007.65 1007.64 1008.05 1008.12 1008.33 1008.85 1009.46 1010.12 1010.41 1010.71 1011.17 1011.54 1011.97 1012.78 1013.37 1013.75 1014.32 1014.76 1015.40 1016.10 1016.63 1016.93 1017.25 1017.93 1018.77 1019.00 1019.79 1020.37 1020.66 1020.66 1020.85 1021.17
1013.60 1013.58 1013.20 1013.23 1012.54 1012.70 1012.61 1011.29 1010.94 1009.85 1010.17 1008.25 1007.36 1006.65 1007.24 1007.18 1006.78 1007.29 1007.64 1007.77 1007.88 1007.86 1008.12 1008.55 1009.34 1010.09 1010.76 1011.45 1011.84 1012.13 1012.41 1012.66 1013.05 1013.34 1013.96 1014.59 1015.20 1016.06 1016.83 1017.01 1017.26 1018.01 1018.63 1018.82 1019.54 1020.13 1020.60 1020.66 1020.93
1014.23 1013.74 1013.03 1012.90 1013.01 1012.70 1011.52 1010.81 1010.33 1009.26 1008.70 1007.69 1006.73 1006.55 1006.87 1006.82 1006.89 1007.48 1007.60 1007.64 1007.71 1007.99 1008.09 1008.35 1008.80 1009.48 1010.09 1010.71 1011.17 1011.54 1011.31 1011.84 1012.20 1012.32 1012.78 1013.44 1014.29 1014.90 1015.50 1016.07 1016.71 1017.42 1017.70 1018.30 1018.66 1019.33 1020.19 1020.55 1020.98
1014.61 1014.08 1013.26 1012.58 1012.61 1013.20 1011.40 1010.07 1009.38 1008.40 1007.47 1006.78 1006.92 1006.62 1006.68 1006.61 1006.82 1007.31 1007.49 1007.47 1007.70 1008.05 1008.43 1008.88 1009.14 1009.52 1009.78 1010.01 1010.55 1010.76 1011.17 1011.27 1011.85 1012.20 1012.36 1012.60 1013.11 1013.84 1014.57 1015.03 1015.87 1016.53 1016.72 1017.43 1018.07 1018.48 1019.02 1019.56 1020.02
1014.85 1014.45 1013.77 1013.38 1013.17 1012.20 1011.47 1008.88 1008.52 1007.37 1007.17 1006.37 1006.86 1007.16 1006.88 1006.78 1006.99 1007.53 1007.87 1007.99 1008.03 1008.23 1008.39 1008.46 1008.53 1008.91 1009.49 1010.09 1010.50 1010.73 1010.65 1010.90 1010.88 1011.04 1011.69 1011.99 1012.66 1013.15 1013.82 1014.29 1014.94 1015.85 1016.10 1016.16 1016.90 1017.55 1017.86 1018.19 1019.37
1014.89 1014.13 1014.25 1014.13 1014.04 1012.45 1012.27 1007.53 1007.80 1007.21 1006.79 1006.40 1006.87 1006.75 1006.92 1007.13 1007.78 1008.11 1008.23 1009.09 1009.14 1009.55 1009.56 1009.27 1009.20 1009.46 1009.68 1010.07 1009.95 1010.06 1010.23 1010.16 1010.44 1010.76 1011.20 1011.53 1011.83 1011.88 1012.42 1013.13 1013.93 1014.86 1015.76 1015.85 1015.99 1016.70 1017.05 1016.93 1017.57
1014.88 1014.80 1014.66 1014.46 1013.88 1013.17 1011.71 1010.53 1007.01 1006.95 1006.45 1006.63 1007.00 1007.25 1007.61 1007.58 1008.48 1009.03 1010.06 1010.49 1010.38 1010.71 1010.34 1010.14 1009.85 1009.63 1009.86 1010.28 1010.28 1010.11 1009.87 1009.66 1009.76 1010.50 1010.89 1011.24 1011.77 1011.94 1011.95 1012.22 1012.59 1012.93 1013.93 1015.10 1015.45 1015.37 1015.90 1016.57 1016.32
1015.61 1015.31 1015.10 1014.69 1013.92 1012.08 1010.32 1009.88 1007.23 1006.86 1006.83 1006.90 1007.20 1007.70 1008.13 1009.42 1010.34 1010.86 1011.33 1011.56 1012.04 1012.19 1011.53 1011.02 1010.43 1010.27 1010.26 1010.19 1010.11 1010.09 1010.05 1009.84 1009.48 1009.40 1009.92 1010.72 1011.45 1011.80 1011.65 1011.89 1012.32 1012.81 1013.12 1013.15 1014.28 1014.66 1014.90 1015.48 1016.31
1015.18 1015.37 1014.46 1013.73 1013.01 1010.66 1010.28 1009.16 1008.11 1007.40 1007.34 1008.33 1008.29 1008.77 1009.96 1011.04 1011.65 1011.85 1012.16 1012.42 1012.70 1012.47 1012.01 1011.71 1011.90 1011.73 1010.99 1010.67 1010.54 1010.23 1009.98 1009.79 1009.78 1009.54 1009.48 1009.59 1010.33 1011.09 1011.30 1011.53 1011.41 1011.66 1012.08 1012.80 1013.34 1014.05 1013.78 1014.50 1015.10
1014.80 1014.73 1014.43 1013.69 1012.59 1010.74 1010.46 1006.33 1006.57 1007.29 1008.44 1009.79 1011.19 1011.78 1012.50 1013.11 1013.91 1014.45 1014.42 1013.93 1013.57 1013.24 1013.32 1013.44 1012.57 1011.75 1012.09 1011.87 1010.96 1010.58 1010.29 1010.19 1009.87 1009.44 1009.21 1009.02 1009.16 1009.28 1010.19 1010.68 1010.93 1011.46 1011.68 1012.21 1012.79 1013.27 1013.33 1013.19 1014.19
1014.54 1014.48 1014.11 1014.11 1013.41 1012.08 1008.83 1006.26 1006.66 1006.90 1008.97 1010.94 1012.40 1013.06 1013.94 1014.61 1014.90 1015.20 1015.42 1015.19 1014.82 1014.59 1014.35 1014.13 1013.83 1013.37 1012.52 1011.93 1011.76 1010.78 1010.30 1010.14 1009.99 1009.46 1009.37 1009.35 1008.92 1008.66 1009.00 1009.49 1009.98 1010.29 1010.72 1011.22 1011.75 1012.34 1013.17 1012.90 1012.98
1014.79 1014.53 1014.57 1014.63 1013.49 1011.65 1008.74 1007.61 1006.26 1007.69 1009.96 1012.05 1013.26 1014.61 1015.52 1015.68 1015.85 1016.03 1015.98 1015.79 1015.88 1015.70 1015.16 1014.74 1014.28 1013.98 1013.66 1012.99 1012.31 1011.74 1011.09 1010.45 1010.10 1009.80 1009.22 1009.09 1008.87 1008.80 1008.50 1008.43 1009.17 1009.76 1009.86 1010.07 1010.71 1011.31 1012.02 1012.77 1012.54
1014.89 1015.03 1014.82 1014.30 1013.38 1011.74 1010.10 1007.45 1007.69 1009.52 1011.55 1012.90 1014.11 1015.32 1016.29 1016.43 1016.39 1016.53 1016.67 1016.27 1016.00 1015.83 1015.47 1014.81 1014.28 1014.04 1013.63 1013.26 1012.41 1012.11 1011.54 1010.75 1010.30 1009.72 1009.57 1009.18 1008.47 1008.25 1008.22 1008.18 1008.09 1008.36 1008.95 1009.28 1009.23 1009.90 1010.65 1011.74 1012.00
1014.22 1014.20 1014.52 1014.14 1013.09 1012.08 1011.02 1009.10 1008.89 1010.55 1012.56 1014.40 1015.53 1016.30 1017.17 1017.11 1017.08 1017.03 1016.90 1016.42 1016.01 1015.80 1015.49 1014.91 1014.62 1014.31 1014.14 1013.41 1012.98 1012.36 1011.74 1011.04 1010.12 1009.79 1009.18 1008.87 1008.53 1007.82 1007.69 1007.80 1007.72 1007.72 1008.05 1008.18 1008.79 1009.02 1009.43 1010.21 1010.77
Wind_Speed
1 2 2 4 5 4 3 1 3 4 2 1 3 3 4 6 4 6 2 8 6 14 15 15 13 13 12 12 12 12 12 13 14 13 14 14 11 9 6 6 6 7 7 7 7 7 7 7 6
1 1 2 0 4 4 4 0 3 2 1 1 4 5 6 6 3 2 3 10 8 14 14 15 11 13 13 13 12 12 13 13 13 13 13 14 9 5 5 5 6 8 7 7 7 7 7 7 7
1 2 3 1 2 3 4 2 1 2 2 4 3 3 3 2 2 1 3 12 11 14 13 12 11 13 14 13 13 12 13 12 14 13 9 8 8 7 6 8 8 8 8 7 7 8 8 8 8
2 3 3 4 6 6 5 4 4 8 2 4 3 6 3 3 1 2 3 13 12 14 13 10 9 13 14 14 12 12 12 14 13 8 7 7 7 7 7 8 8 8 8 8 8 9 8 8 9
1 2 2 3 4 4 6 7 5 4 2 4 4 2 4 2 1 2 5 10 12 14 13 12 8 10 11 13 15 15 10 5 3 5 7 9 9 9 8 8 8 9 8 9 9 9 9 9 9
1 2 4 4 3 4 6 4 4 5 2 2 5 6 4 3 3 4 5 11 10 14 13 12 10 9 10 9 11 7 9 12 9 10 10 10 10 10 10 10 10 10 10 11 10 9 9 9 9
1 2 3 4 4 4 2 2 3 3 3 5 1 5 1 5 2 3 6 9 9 13 12 12 13 11 8 8 11 10 11 10 9 10 10 10 10 10 10 10 10 10 11 11 11 10 10 10 9
2 2 3 5 3 4 3 3 2 6 3 2 2 6 3 4 5 4 5 9 11 12 13 14 14 14 14 12 8 9 10 11 10 9 9 9 8 7 7 7 9 11 10 10 10 10 9 10 10
1 4 5 4 6 2 4 4 4 2 8 5 8 6 2 5 5 7 7 9 11 12 14 14 15 15 15 14 12 10 9 9 10 10 9 10 9 10 10 7 9 10 10 10 9 9 10 10 10
5 4 5 4 5 5 3 5 7 6 12 14 14 14 9 6 8 10 12 13 16 17 17 15 15 16 15 11 12 13 11 11 9 12 13 10 10 9 8 8 8 10 10 10 9 9 8 4 3
5 7 5 6 11 7 6 7 6 10 14 14 14 12 9 12 13 14 15 16 18 17 14 17 16 15 15 12 10 8 8 9 9 13 12 10 8 7 8 7 7 8 8 7 7 7 4 4 3
6 13 9 4 3 4 7 4 9 14 23 22 18 18 14 14 15 16 17 16 16 16 17 17 17 16 16 10 10 11 10 10 10 12 14 9 7 8 8 7 9 8 7 7 6 4 5 5 4
9 10 8 9 8 11 11 17 16 19 23 22 19 17 18 17 18 15 16 15 14 16 16 17 18 18 16 16 12 12 12 11 12 11 13 11 11 10 10 9 8 7 6 7 7 6 5 5 4
3 7 12 10 13 13 10 21 2 12 12 12 13 16 15 15 15 14 14 15 17 16 18 17 19 19 17 16 17 13 12 13 13 12 13 16 11 10 10 10 9 9 8 6 5 5 5 5 4
5 12 15 13 7 9 5 12 14 21 10 16 17 14 13 14 12 15 14 15 15 16 17 19 20 19 20 19 17 13 12 12 12 12 17 17 15 14 13 11 9 8 8 9 7 7 5 5 4
6 4 9 1 7 2 6 16 18 11 6 14 19 22 22 22 20 16 17 16 15 14 16 17 14 20 22 20 15 13 13 12 11 12 12 16 16 15 13 10 10 10 8 7 8 8 7 6 5
5 11 12 10 7 3 10 13 10 10 16 26 24 23 21 21 21 15 13 14 13 13 14 15 17 20 21 20 15 16 16 13 13 12 13 17 16 16 13 11 10 11 10 9 8 7 8 7 7
13 11 10 10 9 8 12 22 21 24 18 27 25 23 17 17 19 14 13 11 12 10 11 13 12 16 16 12 12 11 12 12 13 13 13 17 14 17 14 11 12 12 10 10 10 10 7 7 7
10 14 19 18 18 20 19 18 17 24 20 24 24 19 13 13 13 9 10 10 8 8 9 11 12 13 12 12 12 12 14 12 13 13 19 20 17 19 16 12 13 13 12 13 14 10 12 7 9
15 16 19 16 9 5 18 23 23 22 24 22 17 14 11 11 9 11 9 8 8 8 7 9 11 11 12 10 9 10 10 11 12 12 15 19 20 19 17 16 14 15 12 14 15 14 10 6 11
11 13 17 19 13 14 14 16 4 6 7 12 8 9 10 9 11 10 9 11 10 12 13 9 8 11 12 13 9 10 9 9 10 13 12 15 19 19 18 18 15 15 13 13 15 15 15 10 10
15 11 14 12 7 10 9 16 6 11 13 11 3 3 5 5 5 5 9 14 12 11 12 11 9 8 8 11 11 15 12 13 11 11 11 12 19 20 19 19 17 16 13 14 14 13 12 10 10
4 2 1 2 8 9 5 9 3 5 11 6 3 7 6 8 5 8 18 15 14 12 11 10 10 8 6 8 13 11 14 11 10 9 13 16 15 18 18 19 20 19 15 15 15 15 15 11 10
2 2 2 1 4 8 5 8 5 4 2 2 10 12 15 20 16 15 17 17 17 17 18 17 17 12 8 7 10 14 15 14 11 10 10 10 10 11 17 18 17 17 16 17 15 16 17 13 10
4 4 6 7 6 11 4 11 6 10 12 8 16 20 22 23 21 20 22 21 20 22 21 17 20 19 16 10 10 11 15 15 15 14 11 12 10 11 14 18 18 16 18 17 16 16 16 16 13
8 8 8 6 12 21 12 20 7 4 6 14 17 17 16 18 17 18 19 18 20 21 21 21 20 19 20 17 13 10 12 9 10 12 11 10 11 11 16 16 17 18 17 16 16 13 13 15 13
6 7 5 9 14 12 17 30 20 17 9 13 14 17 16 14 15 15 16 17 17 17 19 19 19 19 18 19 17 15 12 12 11 12 10 10 11 10 13 15 18 18 18 18 17 13 15 14 13
5 3 9 6 10 20 21 22 15 15 8 7 9 10 10 13 15 16 16 16 14 15 14 16 17 17 18 18 16 14 15 14 14 13 12 13 12 12 12 15 16 18 18 17 18 15 14 14 12
9 9 8 7 9 12 18 17 14 6 8 6 7 7 9 10 11 11 11 12 13 13 13 14 15 16 17 17 16 17 15 15 13 12 13 14 13 13 14 14 16 18 19 18 19 19 17 17 16
16 22 20 11 11 13 16 20 21 6 8 9 5 5 5 7 9 11 12 12 14 15 16 17 15 14 15 15 14 14 14 15 15 13 14 13 14 13 13 14 15 17 18 18 19 20 17 19 19
Wind_Direction
200 344 286 238 249 259 265 195 307 254 228 111 143 233 312 315 290 337 97 182 180 168 171 178 180 177 171 164 162 162 169 167 163 154 144 138 128 117 119 131 117 104 108 111 96 96 89 80 70
33 243 225 244 259 273 65 349 236 342 12 191 214 224 250 287 261 277 216 174 180 169 172 177 178 180 177 173 177 177 181 174 158 150 145 125 130 136 159 135 144 122 121 114 99 92 84 76 69
188 326 264 294 272 317 344 200 13 10 279 232 244 256 298 249 193 298 75 159 172 174 177 177 175 180 179 181 188 194 198 165 159 158 156 121 118 145 157 147 135 131 125 113 106 99 90 84 72
246 170 137 260 277 274 268 312 284 297 193 225 282 258 220 282 309 77 144 164 173 177 181 155 182 183 182 182 184 170 164 153 157 139 121 129 152 160 158 150 144 134 125 117 114 103 97 88 78
45 228 216 249 268 276 266 294 292 273 282 203 202 258 255 182 185 144 167 180 182 179 182 178 184 184 174 174 177 179 178 137 126 159 157 165 164 173 169 160 150 137 135 128 117 109 103 93 86
164 286 249 289 296 279 275 275 279 256 252 199 222 261 255 114 206 179 179 187 192 185 182 186 187 183 179 194 195 166 197 203 197 180 177 178 183 182 174 163 159 151 144 132 126 120 112 103 93
220 243 302 286 287 280 234 173 228 279 253 236 265 260 259 202 174 165 184 189 191 188 189 194 196 194 192 191 170 179 210 213 209 181 182 191 185 187 179 169 165 156 145 141 133 125 118 107 98
155 232 208 217 241 271 192 203 231 250 308 92 234 240 256 103 138 156 179 190 195 195 199 199 203 203 203 198 190 192 199 202 196 175 182 165 165 178 175 167 171 156 150 140 134 127 114 106 98
215 229 242 241 194 216 170 244 171 290 267 220 206 251 352 122 153 172 181 200 204 209 209 205 204 205 207 207 196 189 195 195 177 168 159 157 194 186 171 182 163 158 151 144 134 124 115 106 96
226 239 253 234 218 253 250 238 283 261 253 254 249 246 224 190 201 212 208 208 209 211 209 210 210 208 206 204 205 205 206 209 202 198 187 192 191 184 189 174 169 152 150 147 140 133 127 175 127
180 241 244 233 245 259 277 256 242 263 275 262 271 287 247 224 223 229 231 227 217 217 211 210 209 209 206 204 203 199 202 205 205 204 194 190 186 176 185 172 169 164 167 161 155 155 167 141 137
237 244 238 269 213 241 254 285 258 242 261 278 284 279 273 244 235 230 233 233 227 220 215 208 209 208 207 205 203 204 203 200 197 197 191 185 190 193 191 189 182 179 181 169 172 166 145 136 119
239 262 259 254 261 263 279 261 264 267 261 275 274 274 270 261 262 252 250 249 240 230 222 214 207 207 206 206 205 207 206 204 201 197 194 193 193 192 187 191 190 190 183 183 173 163 156 147 139
357 283 278 276 259 252 252 270 225 262 266 273 271 275 276 271 267 268 249 247 236 235 227 217 213 210 207 209 211 208 207 203 202 200 197 199 196 195 195 192 191 188 188 183 178 170 163 156 156
307 296 291 255 257 232 225 265 231 260 294 286 285 274 276 269 263 254 259 250 241 232 229 219 211 208 213 213 216 213 212 210 206 204 199 196 195 196 191 189 193 194 188 176 168 167 168 166 165
274 261 283 335 172 167 209 273 288 315 290 287 288 288 292 284 276 274 271 266 253 237 228 224 208 207 208 209 210 212 214 213 212 211 207 203 201 196 194 193 189 181 183 187 184 176 172 174 172
224 273 252 297 210 139 213 286 271 288 298 288 284 282 282 292 294 285 276 273 266 249 240 231 217 217 214 213 209 207 209 211 213 211 207 206 203 201 198 194 192 183 180 185 189 186 185 175 168
282 263 253 265 294 249 266 271 282 282 276 276 280 280 294 290 292 317 306 287 271 263 243 235 223 224 218 219 219 217 217 216 216 212 211 204 200 199 202 200 191 184 186 185 185 186 191 184 162
286 272 281 279 283 291 287 285 280 279 273 264 273 283 294 290 310 342 334 324 310 275 257 241 232 225 211 206 208 214 220 214 217 212 209 204 202 199 199 198 194 189 187 188 186 177 176 168 164
258 270 273 280 291 288 294 296 281 265 263 263 277 287 286 302 342 9 13 15 357 326 304 281 262 247 224 218 218 222 225 229 226 222 219 212 204 199 197 195 194 193 187 189 188 179 176 175 184
244 262 280 284 315 278 306 283 268 256 252 270 253 268 281 304 348 23 21 23 14 6 350 324 275 242 225 221 221 226 238 235 217 221 217 215 211 204 200 199 195 195 195 190 188 189 183 174 192
271 264 258 278 297 298 15 295 300 268 284 270 35 308 291 357 21 52 39 14 21 8 354 348 326 288 257 231 226 224 226 235 237 234 227 216 212 207 201 200 197 196 201 200 192 191 197 182 178
257 45 222 225 273 304 253 264 13 169 264 309 52 29 355 321 30 32 20 14 26 21 19 14 5 353 294 240 240 240 240 250 246 238 240 224 218 219 209 203 198 196 195 205 201 190 195 200 185
122 288 289 223 255 253 299 241 31 19 134 104 360 350 353 30 36 29 32 28 22 17 16 15 16 17 348 273 252 251 256 255 251 234 235 231 224 220 212 206 209 206 204 197 200 198 197 196 205
170 271 293 265 236 270 349 281 249 300 291 336 347 11 32 30 28 26 19 15 13 14 16 20 15 10 7 345 304 281 268 265 260 248 238 226 218 219 216 215 211 208 204 203 198 201 197 199 200
204 233 237 266 273 288 281 264 267 86 350 36 50 57 41 33 29 23 19 17 14 13 13 9 13 18 10 358 345 315 296 278 268 259 247 238 225 215 213 213 217 218 212 207 204 204 206 196 199
142 208 260 274 274 280 270 270 270 236 73 60 42 23 22 23 21 20 17 15 12 9 6 5 4 6 9 6 357 345 323 299 281 269 254 249 230 215 211 211 212 212 210 207 202 207 208 201 192
248 341 245 220 253 250 263 266 258 286 351 64 33 30 19 14 17 11 2 3 2 3 2 2 5 4 1 0 359 352 340 320 299 287 264 248 241 232 214 206 210 216 212 206 204 204 201 202 199
246 248 238 270 248 251 255 260 273 14 70 21 27 35 20 23 22 14 5 359 354 356 359 360 2 358 358 356 356 353 349 343 322 296 280 266 252 236 225 217 211 211 212 208 203 206 199 200 199
263 259 256 248 238 225 248 257 286 320 75 65 27 31 33 28 7 357 353 354 355 352 354 352 352 353 351 349 347 350 348 350 351 330 304 286 267 248 234 225 220 214 212 208 211 208 202 200 199